1310774426292,46.3024
1310774486292,46.3051
1310774546292,46.4858
1310774606292,46.4209
1310774666292,46.3902
1310774726292,46.5637
1310774786292,46.3432
1310774846292,46.5471
1310774906292,46.5246
1310774966292,46.5379
1310775026292,46.4287
1310775086292,46.4704
1310775146292,46.4190
1310775206292,46.5388
1310775266292,46.5170
1310775326292,46.5252
1310775386292,46.5099
1310775446292,46.5377
1310775506292,46.5053
1310775566292,46.5679
1310775626292,46.4370
1310775686292,46.5581
1310775746292,46.5244
1310775806292,46.4749
1310775866292,46.4263
1310775926292,46.5085
1310775986292,46.6623
1310776046292,46.4829
1310776106292,46.4888
1310776166292,46.4323
1310776226292,46.5201
1310776286292,46.5257
1310776346292,46.4756
1310776406292,46.4590
1310776466292,46.5230
1310776526292,46.4053
1310776586292,46.5150
1310776646292,46.4419
1310776706292,46.5812
1310776766292,46.4948
1310776826292,46.4202
1310776886292,46.3845
1310776946292,46.4969
1310777006292,46.4854
1310777066292,46.6235
1310777126292,46.6827
1310777186292,46.4806
1310777246292,46.4644
1310777306292,46.4572
1310777366292,46.5872
1310777426292,46.8243
1310777486292,46.5646
1310777546292,46.6164
1310777606292,46.5335
1310777666292,46.5819
1310777726292,46.4166
1310777786292,46.6315
1310777846292,46.4311
1310777906292,46.5628
1310777966292,46.5712
1310778026302,46.5614
1310778086302,46.6678
1310778146302,46.5685
1310778206302,46.6389
1310778266302,46.4606
1310778326302,46.5451
1310778386302,46.5063
1310778446302,46.5438
1310778506302,46.5464
1310778566302,46.4675
1310778626302,46.5231
1310778686302,46.4842
1310778746302,46.6370
1310778806302,46.6523
1310778866302,46.5308
1310778926302,46.4908
1310778986302,46.6338
1310779046302,46.4918
1310779106302,46.5609
1310779166302,46.5305
1310779226302,46.5616
1310779286302,46.6651
1310779346302,46.4777
1310779406302,46.5989
1310779466302,46.6238
1310779526302,46.5969
1310779586302,46.6555
1310779646302,46.8250
1310779706302,46.6262
1310779766302,46.5046
1310779826302,46.6548
1310779886302,46.5483
1310779946302,46.5499
1310780006302,46.4569
1310780066302,46.5822
1310780126302,46.6439
1310780186302,46.6177
1310780246302,46.6719
1310780306302,46.6024
1310780366302,46.5771
1310780426302,46.6645
1310780486302,46.5511
1310780546302,46.6298
1310780606302,46.5340
1310780666302,46.6252
1310780726302,46.5906
1310780786302,46.5042
1310780846302,46.6363
1310780906302,46.5651
1310780966302,46.5804
1310781026302,46.5068
1310781086302,46.4987
1310781146302,46.5204
1310781206302,46.5806
1310781266302,46.6208
1310781326302,46.5201
1310781386302,46.4595
1310781446302,46.4964
1310781506302,46.4751
1310781566302,46.4786
1310781626311,46.4055
1310781686311,46.5099
1310781746311,46.4117
1310781806311,46.5912
1310781866311,46.5522
1310781926311,46.6311
1310781986311,46.4947
1310782046311,46.6259
1310782106311,46.6729
1310782166311,46.5999
1310782226311,46.5053
1310782286311,46.4568
1310782346311,46.5632
1310782406311,46.5101
1310782466311,46.5123
1310782526311,46.6411
1310782586311,46.5990
1310782646311,46.5872
1310782706311,46.5899
1310782766311,46.6508
1310782826311,46.5775
1310782886311,46.6465
1310782946311,46.5551
1310783006311,46.5192
1310783066311,46.6772
1310783126311,46.5628
1310783186311,46.6672
1310783246311,46.6027
1310783306311,46.5453
1310783366311,46.6840
1310783426311,46.5199
1310783486311,46.5448
1310783546311,46.5163
1310783606311,46.4818
1310783666311,46.4840
1310783726311,46.4595
1310783786311,46.5527
1310783846311,46.5073
1310783906311,46.5655
1310783966311,46.4884
1310784026311,46.4070
1310784086311,46.5363
1310784146311,46.6548
1310784206311,46.6116
1310784266311,46.5998
1310784326311,46.5512
1310784386311,46.5133
1310784446311,46.5087
1310784506311,46.3962
1310784566311,46.4072
1310784626311,46.5240
1310784686311,46.4988
1310784746311,46.5108
1310784806311,46.5289
1310784866311,46.9033
1310784926311,46.4285
1310784986311,46.4792
1310785046311,46.3329
1310785106311,46.5409
1310785166311,46.4481
1310785226320,46.5009
1310785286320,46.4753
1310785346320,46.4376
1310785406320,46.6086
1310785466320,46.3244
1310785526320,46.2948
1310785586320,46.4554
1310785646320,46.4525
1310785706320,46.2794
1310785766320,46.5152
1310785826320,46.3435
1310785886320,46.3389
1310785946320,46.3380
1310786006320,46.4460
1310786066320,46.4443
1310786126320,46.4789
1310786186320,46.3315
1310786246320,46.3930
1310786306320,46.2492
1310786366320,46.3321
1310786426320,46.3828
1310786486320,46.3522
1310786546320,46.3816
1310786606320,46.3382
1310786666320,46.3386
1310786726320,46.4367
1310786786320,46.3754
1310786846320,46.3555
1310786906320,46.3212
1310786966320,46.3225
1310787026320,46.4637
1310787086320,46.4249
1310787146320,46.3692
1310787206320,46.3522
1310787266320,46.4179
1310787326320,46.4151
1310787386320,46.3561
1310787446320,46.3971
1310787506320,46.4951
1310787566320,46.3820
1310787626320,46.3577
1310787686320,46.3428
1310787746320,46.4879
1310787806320,46.4360
1310787866320,46.2972
1310787926320,46.4873
1310787986320,46.4971
1310788046320,46.5345
1310788106320,46.4752
1310788166320,46.3541
1310788226320,46.3724
1310788286320,46.4735
1310788346320,46.6287
1310788406320,46.5016
1310788466320,46.5392
1310788526320,46.4512
1310788586320,46.4618
1310788646320,46.4935
1310788706320,46.5080
1310788766320,46.4755
1310788826330,46.5866
1310788886330,46.5019
1310788946330,46.5474
1310789006330,46.3686
1310789066330,46.6867
1310789126330,46.5300
1310789186330,46.5456
1310789246330,46.6018
1310789306330,46.6135
1310789366330,46.6424
1310789426330,46.6606
1310789486330,46.5561
1310789546330,46.5712
1310789606330,46.6411
1310789666330,46.6198
1310789726330,46.5177
1310789786330,46.6763
1310789846330,46.6711
1310789906330,46.7297
1310789966330,46.5887
1310790026330,46.7445
1310790086330,46.6697
1310790146330,46.6062
1310790206330,46.6751
1310790266330,46.6411
1310790326330,46.6320
1310790386330,46.5540
1310790446330,46.7316
1310790506330,46.6754
1310790566330,46.6327
1310790626330,46.5461
1310790686330,46.7578
1310790746330,46.5757
1310790806330,46.8378
1310790866330,46.6731
1310790926330,46.7531
1310790986330,46.7934
1310791046330,46.4883
1310791106330,46.5698
1310791166330,46.8207
1310791226330,46.8075
1310791286330,46.7586
1310791346330,46.7963
1310791406330,46.7462
1310791466330,46.6514
1310791526330,46.8755
1310791586330,46.7575
1310791646330,46.6775
1310791706330,46.7011
1310791766330,46.9114
1310791826330,46.8385
1310791886330,46.8147
1310791946330,46.6919
1310792006330,46.8136
1310792066330,46.6859
1310792126330,46.8848
1310792186330,46.6429
1310792246330,46.8435
1310792306330,46.9084
1310792366330,46.9081
1310792426339,46.5953
1310792486339,46.8228
1310792546339,46.8249
1310792606339,46.7937
1310792666339,46.7032
1310792726339,46.7292
1310792786339,46.8109
1310792846339,46.7845
1310792906339,46.8625
1310792966339,46.6960
1310793026339,46.7508
1310793086339,46.7427
1310793146339,46.9088
1310793206339,46.8381
1310793266339,46.6875
1310793326339,46.7144
1310793386339,46.7602
1310793446339,46.7384
1310793506339,46.7327
1310793566339,46.8955
1310793626339,46.8912
1310793686339,46.7985
1310793746339,46.9117
1310793806339,46.7893
1310793866339,46.7995
1310793926339,46.8542
1310793986339,46.8758
1310794046339,46.8516
1310794106339,46.7254
1310794166339,46.7907
1310794226339,46.8930
1310794286339,46.9812
1310794346339,46.7975
1310794406339,46.7959
1310794466339,46.7446
1310794526339,46.7867
1310794586339,46.9435
1310794646339,46.8644
1310794706339,46.6821
1310794766339,46.7868
1310794826339,46.8138
1310794886339,46.8726
1310794946339,46.7527
1310795006339,46.9148
1310795066339,46.9935
1310795126339,46.8030
1310795186339,46.8707
1310795246339,46.6865
1310795306339,46.6447
1310795366339,47.0070
1310795426339,46.9253
1310795486339,46.8990
1310795546339,46.6679
1310795606339,46.7739
1310795666339,46.8611
1310795726339,46.7562
1310795786339,46.7155
1310795846339,46.6744
1310795906339,46.8624
1310795966339,46.8259
1310796026348,46.8260
1310796086348,46.8415
1310796146348,46.6934
1310796206348,46.7730
1310796266348,46.7646
1310796326348,46.8286
1310796386348,46.8294
1310796446348,46.7845
1310796506348,46.7646
1310796566348,46.7979
1310796626348,46.7286
1310796686348,46.7031
1310796746348,46.6728
1310796806348,46.8155
1310796866348,46.6799
1310796926348,46.6725
1310796986348,46.6574
1310797046348,46.7019
1310797106348,46.6163
1310797166348,46.6452
1310797226348,46.6902
1310797286348,46.7051
1310797346348,46.6201
1310797406348,46.6795
1310797466348,46.6645
1310797526348,46.6818
1310797586348,46.7332
1310797646348,46.7328
1310797706348,46.7165
1310797766348,46.6730
1310797826348,46.5387
1310797886348,46.6073
1310797946348,46.5276
1310798006348,46.5218
1310798066348,46.6148
1310798126348,46.6551
1310798186348,46.4970
1310798246348,46.5692
1310798306348,46.6630
1310798366348,46.5396
1310798426348,46.5988
1310798486348,46.6180
1310798546348,46.5765
1310798606348,46.5229
1310798666348,46.4772
1310798726348,46.5724
1310798786348,46.5329
1310798846348,46.4653
1310798906348,46.5532
1310798966348,46.6465
1310799026348,46.5735
1310799086348,46.6720
1310799146348,46.6080
1310799206348,46.5822
1310799266348,46.7738
1310799326348,46.5668
1310799386348,46.5410
1310799446348,46.6146
1310799506348,46.4281
1310799566348,46.5586
1310799626357,46.5774
1310799686357,46.4873
1310799746357,46.5150
1310799806357,46.5062
1310799866357,46.4540
1310799926357,46.4894
1310799986357,46.5586
1310800046357,46.5116
1310800106357,46.4549
1310800166357,46.3289
1310800226357,46.4103
1310800286357,46.3734
1310800346357,46.5232
1310800406357,46.5198
1310800466357,46.4395
1310800526357,46.5576
1310800586357,46.5942
1310800646357,46.5037
1310800706357,46.5559
1310800766357,46.3881
1310800826357,46.4819
1310800886357,46.6702
1310800946357,46.5886
1310801006357,46.5566
1310801066357,46.5882
1310801126357,46.5116
1310801186357,46.6198
1310801246357,46.3664
1310801306357,46.4846
1310801366357,46.6109
1310801426357,46.5202
1310801486357,46.6243
1310801546357,46.4766
1310801606357,46.6163
1310801666357,46.4789
1310801726357,46.4656
1310801786357,46.5594
1310801846357,46.4746
1310801906357,46.6285
1310801966357,46.5602
1310802026357,46.6408
1310802086357,46.6097
1310802146357,46.6599
1310802206357,46.6379
1310802266357,46.6185
1310802326357,46.5577
1310802386357,46.6189
1310802446357,46.5521
1310802506357,46.6017
1310802566357,46.4871
1310802626357,46.5413
1310802686357,46.5044
1310802746357,46.5432
1310802806357,46.5400
1310802866357,46.6408
1310802926357,46.7315
1310802986357,46.6672
1310803046357,46.6061
1310803106357,46.5427
1310803166357,46.4862
1310803226366,46.4497
1310803286366,46.4670
1310803346366,46.5656
1310803406366,46.5363
1310803466366,46.5708
1310803526366,46.5169
1310803586366,46.4327
1310803646366,46.4808
1310803706366,46.5311
1310803766366,46.4216
1310803826366,46.4224
1310803886366,46.4700
1310803946366,46.4587
1310804006366,46.4622
1310804066366,46.4563
1310804126366,46.3994
1310804186366,46.4009
1310804246366,46.4363
1310804306366,46.2662
1310804366366,46.3022
1310804426366,46.4308
1310804486366,46.2879
1310804546366,46.4137
1310804606366,46.1342
1310804666366,46.2892
1310804726366,46.3369
1310804786366,46.4005
1310804846366,46.2622
1310804906366,46.3700
1310804966366,46.2870
1310805026366,46.4143
1310805086366,46.4145
1310805146366,46.3621
1310805206366,46.6271
1310805266366,46.4277
1310805326366,46.4754
1310805386366,46.3048
1310805446366,46.3984
1310805506366,46.4748
1310805566366,46.4762
1310805626366,46.6129
1310805686366,46.3826
1310805746366,46.5021
1310805806366,46.4975
1310805866366,46.4803
1310805926366,46.4395
1310805986366,46.7413
1310806046366,46.4136
1310806106366,46.4015
1310806166366,46.6357
1310806226366,46.5175
1310806286366,46.6302
1310806346366,46.5387
1310806406366,46.6124
1310806466366,46.6667
1310806526366,46.5655
1310806586366,46.5524
1310806646366,46.5217
1310806706366,46.4199
1310806766366,46.6301
1310806826374,46.6842
1310806886374,46.6448
1310806946374,46.7078
1310807006375,46.7503
1310807066375,46.6783
1310807126375,46.7611
1310807186375,46.6961
1310807246375,46.5903
1310807306375,46.7324
1310807366375,46.6779
1310807426375,46.6490
1310807486375,46.6565
1310807546375,46.8018
1310807606375,46.7297
1310807666375,46.6489
1310807726375,46.6830
1310807786375,46.6402
1310807846375,46.6954
1310807906375,46.7145
1310807966375,46.7064
1310808026375,46.6069
1310808086374,46.6024
1310808146374,46.6082
1310808206374,46.7359
1310808266374,46.7018
1310808326374,46.6758
1310808386375,46.6605
1310808446375,46.6057
1310808506375,46.6873
1310808566375,46.7301
1310808626375,46.6811
1310808686375,46.6681
1310808746375,46.8842
1310808806375,46.7376
1310808866375,46.6718
1310808926375,46.7435
1310808986375,46.7702
1310809046375,46.6750
1310809106375,46.6602
1310809166375,46.8039
1310809226375,46.7526
1310809286375,46.7348
1310809346375,46.7620
1310809406375,46.7868
1310809466374,46.8334
1310809526374,46.6761
1310809586374,46.8176
1310809646374,46.7258
1310809706375,46.6592
1310809766375,46.8773
1310809826375,46.7639
1310809886375,46.7201
1310809946375,47.1584
1310810006375,46.8029
1310810066375,46.8083
1310810126375,46.7692
1310810186375,46.9563
1310810246375,46.7684
1310810306375,46.8231
1310810366375,46.8404
1310810426383,46.7585
1310810486383,46.6751
1310810546383,46.7417
1310810606383,46.7313
1310810666383,46.6877
1310810726383,46.7645
1310810786383,46.6430
1310810846384,46.5506
1310810906384,46.6668
1310810966383,46.6505
1310811026383,46.7149
1310811086383,46.6879
1310811146383,46.6606
1310811206383,46.8113
1310811266383,46.5879
1310811326383,46.6244
1310811386383,46.5165
1310811446383,46.5580
1310811506383,46.6122
1310811566383,46.6602
1310811626383,46.6329
1310811686383,46.6302
1310811746383,46.7848
1310811806383,46.5181
1310811866383,46.5756
1310811926383,46.8166
1310811986383,46.5527
1310812046383,46.4489
1310812106383,46.6332
1310812166384,46.5275
1310812226384,46.4275
1310812286384,46.4902
1310812346383,46.6048
1310812406383,46.5801
1310812466383,46.5195
1310812526383,46.4861
1310812586383,46.4567
1310812646383,46.4234
1310812706383,46.4623
1310812766383,46.4488
1310812826383,46.4562
1310812886383,46.3836
1310812946383,46.2144
1310813006383,46.4306
1310813066383,46.3199
1310813126383,46.5984
1310813186383,46.3736
1310813246383,46.4420
1310813306383,46.3885
1310813366383,46.2425
1310813426383,46.3544
1310813486383,46.4667
1310813546384,46.4100
1310813606384,46.4317
1310813666383,46.3996
1310813726383,46.3454
1310813786383,46.6969
1310813846383,46.4494
1310813906383,46.3867
1310813966383,46.4288
1310814026392,46.4987
1310814086392,46.4471
1310814146392,46.4095
1310814206392,46.2795
1310814266392,46.3510
1310814326392,46.4403
1310814386392,46.4622
1310814446392,46.4180
1310814506392,46.4391
1310814566392,46.4267
1310814626392,46.4834
1310814686392,46.2812
1310815226392,46.3684
1310815286392,46.4812
1310815346392,46.5385
1310815406392,46.4216
1310815466392,46.3915
1310815526392,46.3986
1310815586392,46.3305
1310815646392,46.4523
1310815706392,46.3288
1310815766392,46.4465
1310815826392,46.4618
1310815886392,46.5160
1310815946392,46.2959
1310816006392,46.4141
1310816066392,46.4619
1310816126392,46.4453
1310816186392,46.4155
1310816246392,46.3537
1310816306392,46.4785
1310816366392,46.3593
1310816426392,46.3238
1310816486392,46.5347
1310816546392,46.3543
1310816606392,46.4052
1310816666392,46.4745
1310816726392,46.4267
1310816786392,46.3197
1310816846392,46.4437
1310816906392,46.4583
1310816966392,46.2900
1310817026392,46.4864
1310817086392,46.4619
1310817146392,46.3130
1310817206392,46.4385
1310817266392,46.5229
1310817326392,46.3243
1310817386392,46.3321
1310817446392,46.4894
1310817506392,46.4631
1310817566392,46.6124
1310817626401,46.4383
1310817686401,46.5549
1310817746401,46.5771
1310817806402,46.4773
1310817866402,46.4250
1310817926402,46.5067
1310817986402,46.6337
1310818046402,46.5237
1310818106402,46.5020
1310818166401,46.5907
1310818226401,46.6336
1310818286401,46.5947
1310818346401,46.6660
1310818406401,46.5343
1310818466401,46.6240
1310818526401,46.6150
1310818586401,46.7226
1310818646401,46.6561
1310818706401,46.5902
1310818766402,46.5391
1310818826401,46.5976
1310818886401,46.6030
1310818946401,46.6096
1310819006401,46.5797
1310819066401,46.5784
1310819126402,46.5064
1310819186402,46.5668
1310819246402,46.6405
1310819306402,46.5897
1310819366402,46.6353
1310819426402,46.3817
1310819486401,46.6437
1310819546401,46.5811
1310819606401,46.7193
1310819666401,46.5567
1310819726401,46.6436
1310819786401,46.9697
1310819846401,46.5439
1310819906401,46.7223
1310819966401,46.6137
1310820026401,46.6021
1310820086401,46.6541
1310820146402,46.6005
1310820206401,46.6000
1310820266401,46.7308
1310820326401,46.4172
1310820386401,46.6705
1310820446401,46.7118
1310820506402,46.6332
1310820566402,46.5699
1310820626402,46.5960
1310820686402,46.5896
1310820746402,46.7191
1310820806402,46.6395
1310820866401,46.5575
1310820926401,46.4137
1310820986401,46.5469
1310821046401,46.4052
1310821106401,46.5201
1310821166401,46.5977
1310821226411,46.6008
1310821286411,46.6128
1310821346411,46.4675
1310821406411,46.6639
1310821466411,46.5861
1310821526411,46.5863
1310821586411,46.4110
1310821646411,46.5377
1310821706411,46.5185
1310821766411,46.4972
1310821826411,46.4996
1310821886411,46.5024
1310821946411,46.5119
1310822006411,46.6052
1310822066411,46.4830
1310822126411,46.4811
1310822186411,46.6505
1310822246411,46.7121
1310822306411,46.6312
1310822366411,46.4994
1310822426411,46.6545
1310822486411,46.6172
1310822546411,46.6628
1310822606411,46.8271
1310822666411,46.6256
1310822726411,46.5584
1310822786411,46.6205
1310822846411,46.5823
1310822906411,46.6456
1310822966411,46.5608
1310823026411,46.6019
1310823086411,46.5241
1310823146411,46.4537
1310823206411,46.5394
1310823266411,46.5125
1310823326411,46.5838
1310823386411,46.4551
1310823446411,46.4327
1310823506411,46.6297
1310823566411,46.4618
1310823626411,46.5466
1310823686411,46.6358
1310823746411,46.5723
1310823806411,46.5574
1310823866411,46.5949
1310823926411,46.4614
1310823986411,46.5592
1310824046411,46.5927
1310824106411,46.5954
1310824166411,46.5207
1310824226411,46.5045
1310824286411,46.5437
1310824346411,46.6273
1310824406411,46.6597
1310824466411,46.6038
1310824526411,46.5460
1310824586411,46.4620
1310824646411,46.5242
1310824706411,46.5304
1310824766411,46.5814
1310824826420,46.5521
1310824886420,46.4165
1310824946420,46.4962
1310825006420,46.5424
1310825066420,46.5675
1310825126420,46.5462
1310825186420,46.4559
1310825246420,46.4760
1310825306420,46.5513
1310825366420,46.5292
1310825426420,46.4629
1310825486420,46.5462
1310825546420,46.5466
1310825606420,46.4502
1310825666420,46.6034
1310825726420,46.5097
1310825786420,46.4945
1310825846420,46.5013
1310825906420,46.4722
1310825966420,46.4458
1310826026420,46.4594
1310826086420,46.5458
1310826146420,46.6163
1310826206420,46.3237
1310826266420,46.4266
1310826326420,46.4840
1310826386420,46.5641
1310826446420,46.4521
1310826506420,46.5763
1310826566420,46.4560
1310826626420,46.6548
1310826686420,46.3796
1310826746420,46.4775
1310826806420,46.3518
1310826866420,46.5458
1310826926420,46.5036
1310826986420,46.4321
1310827046420,46.5824
1310827106420,46.4956
1310827166420,46.3893
1310827226420,46.6048
1310827286420,46.5724
1310827346420,46.4690
1310827406420,46.4754
1310827466420,46.4907
1310827526420,46.4337
1310827586420,46.4442
1310827646420,46.6535
1310827706420,46.6643
1310827766420,46.5799
1310827826420,46.6425
1310827886420,46.4408
1310827946420,46.5147
1310828006420,46.4513
1310828066420,46.5012
1310828126420,46.6392
1310828186420,46.6073
1310828246420,46.5646
1310828306420,46.4622
1310828366420,46.5340
1310828426430,46.6192
1310828486430,46.7156
1310828546430,46.6500
1310828606430,46.5517
1310828666430,46.4839
1310828726430,46.5036
1310828786430,46.5254
1310828846430,46.4349
1310828906430,46.6026
1310828966429,46.6097
1310829026429,46.6365
1310829086429,46.6551
1310829146430,46.6089
1310829206430,46.6721
1310829266430,46.6039
1310829326430,46.5449
1310829386430,46.5861
1310829446430,46.5703
1310829506430,46.6316
1310829566430,46.5441
1310829626430,46.5567
1310829686430,46.6455
1310829746430,46.4864
1310829806430,46.6366
1310829866430,46.5658
1310829926430,46.5737
1310829986430,46.5730
1310830046430,46.5008
1310830106430,46.5381
1310830166430,46.4942
1310830226430,46.4677
1310830286430,46.6050
1310830346429,46.4657
1310830406429,46.5640
1310830466429,46.5074
1310830526430,46.7329
1310830586430,46.6823
1310830646430,46.5698
1310830706430,46.4992
1310830766430,46.6977
1310830826430,46.6513
1310830886430,46.5134
1310830946430,46.7156
1310831006430,46.6786
1310831066430,46.3860
1310831126430,46.7511
1310831186430,46.4529
1310831246430,46.5394
1310831306430,46.7680
1310831366430,46.6297
1310831426430,46.6157
1310831486430,46.7999
1310831546430,46.6724
1310831606430,46.5748
1310831666429,46.5323
1310831726429,46.4954
1310831786429,46.4363
1310831846430,46.6536
1310831906430,46.6019
1310831966430,46.6173
1310832026439,46.6401
1310832086439,46.7789
1310832146439,46.5937
1310832206439,46.7039
1310832266439,46.8328
1310832326439,46.4959
1310832386439,46.7525
1310832446439,46.7073
1310832506439,46.7849
1310832566439,46.6602
1310832626439,46.7148
1310832686439,46.7800
1310832746439,46.8296
1310832806439,46.6730
1310832866439,46.6423
1310832926439,46.6758
1310832986439,46.7748
1310833046439,46.6044
1310833106439,46.7201
1310833166439,46.7339
1310833226439,46.7019
1310833286439,46.7747
1310833346439,46.6512
1310833406439,46.7591
1310833466439,46.6551
1310833526439,46.7811
1310833586439,46.8810
1310833646439,46.7110
1310833706439,46.7486
1310833766439,46.6118
1310833826439,46.7127
1310833886439,46.7079
1310833946439,46.6202
1310834006439,46.7127
1310834066439,46.7781
1310834126439,46.7414
1310834186439,46.6478
1310834246439,46.5904
1310834306439,46.5928
1310834366439,46.6527
1310834426439,46.7246
1310834486439,46.5944
1310834546439,46.7210
1310834606439,46.7619
1310834666439,46.7231
1310834726439,46.7418
1310834786439,46.6786
1310834846439,46.7165
1310834906439,46.5524
1310834966439,46.5716
1310835026439,46.6771
1310835086439,46.4095
1310835146439,46.6547
1310835206439,46.6376
1310835266439,46.6067
1310835326439,46.5550
1310835386439,46.5748
1310835446439,46.5244
1310835506439,46.4630
1310835566439,46.6468
1310835626450,46.5659
1310835686450,46.5440
1310835746450,46.5763
1310835806450,46.6438
1310835866450,46.5795
1310835926450,46.6419
1310835986450,46.6418
1310836046450,46.5765
1310836106450,46.5839
1310836166450,46.6835
1310836226450,46.4295
1310836286450,46.5675
1310836346450,46.5921
1310836406450,46.4554
1310836466450,46.6417
1310836526450,46.5708
1310836586450,46.7546
1310836646450,46.6175
1310836706450,46.6367
1310836766450,46.6462
1310836826450,46.6176
1310836886450,46.4048
1310836946450,46.4852
1310837006450,46.6435
1310837066450,46.4929
1310837126450,46.7110
1310837186450,46.5662
1310837246450,46.5675
1310837306450,46.6232
1310837366450,46.6669
1310837426450,46.6695
1310837486450,46.7103
1310837546450,46.6944
1310837606450,46.4832
1310837666450,46.5801
1310837726450,46.6665
1310837786450,46.6012
1310837846450,46.5718
1310837906450,46.6953
1310837966450,46.6005
1310838026450,46.6907
1310838086450,46.5406
1310838146450,46.6812
1310838206450,46.6420
1310838266450,46.7479
1310838326450,46.7320
1310838386450,46.7495
1310838446450,46.6369
1310838506450,46.6511
1310838566450,46.7400
1310838626450,46.5132
1310838686450,46.6230
1310838746450,46.6324
1310838806450,46.7243
1310838866450,46.5342
1310838926450,46.7538
1310838986450,46.6246
1310839046450,46.6050
1310839106450,46.6609
1310839166450,46.4753
1310839226460,46.6337
1310839286460,46.5682
1310839346460,46.6895
1310839406460,46.6635
1310839466460,46.6456
1310839526460,46.8048
1310839586460,46.6766
1310839646460,46.6446
1310839706460,46.7031
1310839766460,46.7044
1310839826460,46.6423
1310839886460,46.6642
1310839946460,46.6950
1310840006460,46.8090
1310840066460,46.7583
1310840126460,46.7850
1310840186460,46.6504
1310840246460,46.7089